Wind_Speed
43 43 44 44 45 46 46 47 48 49 50 51 51 51 52 53 53 54 54 54 54 55 55 55 56 57 57 57 57 57 57 57 58 59 58 59 60 60 60 59 59 58 57 56 55 54 52 50 49 50 50 50 50 50 50 51 51 52 53 53 52 50 48 46 44 42 37 36 31 26 29 28 29 36 39 36 35 42 41 34 34 33 34 36 34 34 30 28
44 44 45 45 46 46 47 47 48 49 50 51 51 52 52 53 53 53 54 54 55 55 54 55 55 56 57 57 57 57 57 57 57 57 57 59 60 59 60 59 59 59 58 58 57 55 54 51 50 49 48 48 47 47 48 49 50 52 52 51 50 47 46 44 43 40 36 34 26 21 28 30 33 38 39 36 35 41 36 28 30 31 34 35 32 33 31 28
44 45 45 46 46 47 47 48 49 49 50 51 52 52 53 53 53 53 54 54 55 55 55 55 55 56 57 57 57 57 56 57 56 56 57 58 58 59 59 59 59 60 60 59 58 57 55 53 52 51 49 47 46 45 46 46 47 49 50 50 47 44 43 42 40 38 32 23 18 23 28 31 38 40 39 37 37 41 30 22 27 30 34 35 31 32 32 30
44 45 45 45 46 46 47 48 48 49 50 50 51 52 53 53 53 54 54 54 54 55 55 55 56 57 57 57 57 57 56 56 56 56 57 57 57 58 58 58 58 59 60 59 58 57 57 55 53 52 50 48 46 45 45 44 44 46 46 45 42 40 41 39 38 36 27 18 18 26 32 36 41 40 41 40 40 42 29 23 29 31 35 35 33 32 32 33
44 44 44 44 45 45 46 47 47 48 49 49 50 51 51 52 52 53 53 54 54 54 54 55 55 57 57 57 57 57 57 57 57 56 57 57 57 57 56 58 58 58 59 59 58 57 57 57 55 54 52 49 47 46 44 42 42 43 42 39 36 36 36 36 36 31 22 22 25 27 36 41 42 40 43 42 40 37 27 27 35 36 35 35 36 34 33 35
43 43 43 44 44 44 45 46 46 47 47 48 49 49 50 51 51 52 52 53 53 54 54 54 54 56 57 57 57 57 57 57 58 57 57 56 56 56 56 56 56 57 58 58 57 57 57 57 57 55 53 51 49 46 43 41 41 41 39 36 33 33 32 32 34 27 21 26 31 34 40 44 44 42 44 44 38 30 25 30 38 40 38 36 36 34 33 34
42 43 43 43 43 44 44 45 46 46 47 47 48 48 49 50 50 51 52 52 52 53 53 53 53 55 56 56 57 57 56 57 58 58 57 56 56 56 55 55 55 56 57 57 57 56 57 57 57 55 54 52 49 47 44 42 41 40 38 35 32 31 30 30 31 29 31 35 37 41 45 45 46 45 48 48 35 27 29 33 40 43 40 38 38 35 31 32
41 42 43 43 44 44 44 45 45 46 47 48 48 48 48 49 50 51 52 52 53 53 53 53 53 54 55 55 56 57 55 55 57 57 57 56 56 56 55 55 55 55 55 56 56 56 56 56 56 56 55 53 50 48 45 43 42 41 39 36 32 30 30 30 29 28 34 41 43 46 46 48 50 49 53 48 33 30 34 35 40 42 37 36 37 38 34 32
40 41 41 43 43 44 45 45 46 46 46 47 48 48 48 48 49 50 51 52 53 53 53 53 53 54 55 55 56 55 52 54 58 59 58 57 56 56 56 56 55 54 54 55 55 55 56 56 56 56 55 53 52 50 46 45 43 41 40 36 33 31 30 31 29 28 34 42 47 46 41 40 44 51 56 47 33 36 39 38 42 42 37 34 31 32 33 33
39 39 40 41 42 44 44 45 46 46 47 47 48 48 48 49 49 49 50 50 52 52 53 53 53 54 55 56 56 54 53 55 58 60 59 57 54 54 56 56 55 54 54 54 54 55 55 54 55 55 55 54 53 51 49 46 43 41 41 38 34 32 32 31 30 30 34 42 43 39 34 30 31 40 49 44 35 39 42 42 44 43 41 37 30 27 30 32
37 38 38 39 41 42 43 45 46 47 48 48 49 49 50 50 50 50 50 50 51 51 53 53 53 54 54 57 55 52 54 56 56 58 59 54 50 50 53 55 55 54 53 53 53 53 54 53 53 55 56 55 53 51 50 48 44 42 41 39 37 34 34 33 32 32 35 42 41 32 29 28 29 34 39 38 34 37 41 42 44 45 42 37 34 32 31 31
37 38 39 40 41 43 44 45 47 48 49 49 50 51 52 53 52 52 52 51 51 52 52 53 53 53 54 56 53 49 53 56 55 58 59 52 46 49 52 53 54 54 53 53 52 52 52 53 53 55 55 54 53 51 50 48 46 43 42 42 39 36 36 35 33 34 37 42 39 27 23 26 30 34 37 36 33 33 37 41 44 46 43 36 34 34 31 29
39 41 42 43 45 46 47 48 50 51 52 53 53 54 54 55 55 55 55 54 54 54 54 54 54 54 55 54 50 48 51 55 56 57 58 53 47 49 51 52 54 53 52 51 51 51 51 52 53 53 54 54 53 51 48 47 47 45 44 44 41 39 40 37 35 37 39 39 35 25 22 25 29 32 34 32 30 30 33 38 41 44 41 33 32 35 33 29
42 43 45 47 48 50 51 53 54 55 56 57 58 59 58 58 58 58 58 57 57 57 57 56 55 55 56 52 49 50 51 55 57 55 56 53 48 49 51 52 53 53 53 51 49 49 50 51 52 53 53 53 53 52 49 47 47 46 46 46 44 43 43 39 37 39 38 35 31 26 26 27 28 30 32 30 28 27 29 33 35 37 36 31 30 34 36 34
43 45 47 48 50 51 53 54 56 57 58 59 60 62 63 63 62 62 62 61 61 61 60 59 58 57 57 52 50 52 52 53 56 54 54 53 49 48 51 52 52 53 52 51 50 49 48 49 52 53 53 52 52 52 51 50 49 49 50 50 47 46 43 39 38 38 36 32 28 28 29 28 29 31 29 28 27 27 28 28 29 31 32 29 27 31 36 35
45 46 47 49 50 52 54 56 59 59 59 59 59 60 62 65 65 65 65 65 65 64 63 62 61 60 58 54 53 54 52 51 53 54 53 52 50 48 51 52 52 52 52 51 51 50 49 48 50 52 53 53 53 52 52 53 52 52 53 52 49 47 44 41 38 37 35 30 28 29 30 30 31 31 28 27 28 28 28 26 27 29 28 26 26 29 31 30
45 46 48 49 52 54 57 61 62 59 55 53 53 54 56 60 63 65 65 66 67 67 66 65 64 63 59 56 56 55 53 52 52 55 54 52 49 48 50 52 51 51 52 51 51 51 51 50 49 51 53 54 53 52 54 55 55 54 53 52 51 48 45 41 38 37 34 30 29 30 30 32 33 31 29 29 28 28 28 27 28 28 25 24 26 28 29 28
45 46 48 50 52 55 60 64 59 51 46 43 42 43 45 49 55 59 61 64 66 67 67 67 66 64 60 60 60 57 55 54 54 55 55 52 50 48 50 52 52 52 52 52 52 52 52 52 51 51 52 54 55 55 56 56 54 54 53 52 51 49 46 41 37 36 33 30 30 30 32 34 34 33 31 29 29 30 30 27 26 25 24 25 25 26 27 29
45 46 47 49 51 55 62 60 50 41 36 33 31 31 33 37 43 48 53 59 63 65 65 67 68 66 64 65 64 60 57 56 55 55 55 53 51 50 51 52 54 54 54 53 53 53 53 53 54 54 53 54 55 56 56 54 53 53 52 51 50 48 45 40 34 33 33 31 30 30 33 35 35 33 31 30 31 31 30 27 24 23 24 25 25 25 26 28
45 45 46 48 50 55 60 54 42 34 28 25 24 23 24 27 33 38 44 51 56 59 61 64 67 66 65 66 64 62 60 59 58 57 55 53 52 52 52 53 55 56 56 54 53 53 53 54 55 54 52 52 53 54 54 53 52 52 50 49 48 47 45 39 32 31 32 32 31 28 31 37 36 34 32 31 32 30 27 24 23 23 25 25 25 24 25 26
44 43 43 46 49 53 56 46 35 28 23 20 20 20 20 22 26 31 36 42 46 50 54 58 63 66 64 63 63 63 62 60 59 57 56 55 53 53 52 53 55 56 55 54 53 52 53 55 53 50 49 50 52 52 53 52 51 51 49 48 47 46 43 37 31 29 30 31 30 27 30 36 36 34 34 32 31 28 25 24 23 23 24 25 25 24 24 26
42 42 42 44 47 51 51 41 31 24 21 20 20 20 21 23 24 26 30 34 38 42 47 51 58 64 62 58 60 64 63 60 58 56 56 56 56 54 52 52 54 54 54 53 52 53 54 52 48 47 49 50 52 52 52 51 51 51 49 48 47 44 41 37 31 28 29 29 28 30 32 33 34 34 36 33 28 26 25 25 24 22 23 24 24 24 24 26
40 40 40 41 45 48 46 37 28 22 22 23 23 22 22 23 23 25 27 28 31 36 43 46 50 58 60 55 56 63 63 60 59 56 54 54 56 55 53 53 53 54 55 54 52 53 52 48 47 50 50 50 52 54 53 51 51 52 50 49 47 44 41 38 33 28 28 28 27 31 34 33 33 34 35 32 28 24 23 25 25 25 24 23 25 25 25 26
39 38 37 38 43 45 42 35 27 22 23 24 22 20 20 20 21 23 24 25 22 26 35 40 44 53 57 51 52 61 63 59 58 57 55 53 53 55 56 54 54 55 56 54 52 51 49 47 49 51 49 50 53 54 53 51 52 51 50 49 48 44 41 37 31 27 26 28 30 32 34 35 35 34 34 33 30 25 23 24 25 26 26 25 26 25 25 25
38 37 34 35 39 41 40 37 29 23 22 21 19 19 18 17 19 21 21 21 14 16 26 34 39 46 50 48 50 58 61 60 57 56 56 53 52 54 56 56 55 55 55 54 52 51 50 49 48 48 48 50 53 54 52 52 52 51 49 48 47 44 40 35 30 26 27 33 36 36 36 37 36 34 34 34 32 27 24 24 25 25 25 25 26 26 26 25
36 35 31 31 35 37 37 38 33 23 18 18 18 18 17 15 16 17 17 14 9 11 20 26 30 36 42 43 46 54 60 60 57 55 55 54 53 54 56 57 57 55 55 53 52 52 52 50 47 48 51 53 54 53 52 53 52 51 48 46 45 43 41 37 31 27 30 35 38 38 37 38 36 35 35 33 32 28 24 25 24 23 23 23 24 26 27 25
33 33 28 26 31 32 31 34 35 28 18 15 16 14 13 13 12 13 13 9 6 8 13 16 20 26 31 34 39 50 57 55 54 54 54 54 54 56 58 58 57 55 55 54 55 54 52 50 49 51 53 54 53 51 51 53 52 49 46 43 41 40 40 37 33 28 30 35 39 40 39 37 36 34 33 32 28 24 22 23 23 22 23 23 24 27 28 25
29 31 27 23 26 28 28 29 31 31 25 18 14 11 10 10 10 9 7 4 3 2 4 8 15 20 24 30 36 44 49 49 49 49 49 51 54 58 60 60 57 55 55 56 56 54 52 52 52 52 53 52 48 47 50 52 51 47 44 40 39 37 36 36 33 28 30 36 40 43 42 40 39 37 34 34 31 25 22 23 23 23 24 24 25 26 26 25
26 29 27 23 24 25 27 27 27 28 27 23 17 13 11 10 9 7 4 2 2 3 2 1 7 15 20 27 34 39 45 47 44 43 45 48 53 57 59 59 57 54 54 56 55 52 52 52 51 51 51 49 47 47 49 51 49 45 42 40 41 39 36 37 34 29 32 39 42 43 42 42 43 40 36 35 32 27 25 25 26 25 25 24 24 24 23 24
24 28 27 24 24 25 25 27 27 25 23 22 20 17 14 12 10 7 3 1 3 5 1 1 4 9 14 21 28 35 43 44 40 41 45 48 52 55 57 58 59 56 53 54 54 52 51 49 49 49 49 47 46 47 48 49 48 44 43 43 44 41 38 37 36 33 36 43 46 45 44 44 45 43 38 32 25 23 25 26 27 26 25 24 23 22 22 22
24 27 28 26 25 26 26 26 27 25 22 19 18 18 17 16 13 10 7 4 6 8 2 3 5 8 11 16 23 30 38 40 38 43 47 49 52 54 56 58 59 59 56 54 54 52 50 48 48 48 48 46 46 47 48 50 49 45 47 49 46 41 39 38 37 36 38 46 47 44 42 43 46 46 42 36 27 24 25 25 26 25 24 24 23 21 20 21
24 26 28 28 26 27 27 27 27 26 23 19 17 16 15 15 15 12 11 10 10 11 5 3 6 8 10 15 20 25 34 38 38 43 48 51 54 54 56 57 58 59 59 56 54 52 50 48 47 47 47 47 48 49 49 49 49 49 50 51 47 43 44 44 41 40 42 45 46 43 43 42 43 45 45 37 28 24 24 24 23 23 23 22 21 19 20 21
24 24 26 28 26 26 28 27 26 24 23 21 18 16 14 13 15 13 13 13 12 12 7 4 10 11 11 14 17 25 34 38 38 43 48 52 55 54 54 56 56 56 58 57 54 52 50 47 47 47 48 50 50 50 51 50 51 54 54 52 49 47 49 51 47 44 42 42 42 41 43 44 44 47 46 37 27 24 26 26 24 24 24 22 21 20 20 21
25 23 25 27 27 27 27 27 25 22 21 20 18 16 13 12 13 12 11 12 12 10 5 5 11 12 12 13 19 30 37 37 38 41 47 52 55 54 53 55 57 56 56 55 52 50 49 49 50 50 50 52 51 50 51 49 49 53 53 51 51 47 48 53 53 49 43 39 38 39 39 40 40 41 39 34 30 28 29 29 27 26 25 24 22 20 19 21
25 23 23 25 27 28 27 27 27 23 21 20 17 15 13 11 10 11 11 12 11 6 0 6 11 12 11 14 24 35 37 35 37 40 46 53 54 53 52 52 55 55 55 54 51 46 43 44 48 48 47 49 50 50 48 46 47 48 47 48 51 49 46 50 53 50 44 39 39 40 37 36 34 32 30 29 30 30 29 28 27 27 27 25 22 18 18 20
27 25 23 23 26 27 26 27 28 25 23 22 17 13 12 10 7 8 10 11 10 5 3 6 12 13 10 17 30 38 34 33 37 39 44 52 53 51 50 49 51 52 54 52 47 44 40 38 42 43 40 42 46 46 46 45 45 46 48 49 50 51 49 49 50 48 43 40 40 40 38 35 33 31 30 30 31 31 29 26 24 23 25 25 21 18 18 18
29 27 25 24 25 25 25 26 28 27 25 23 18 13 10 7 4 6 7 8 7 3 5 7 13 13 11 21 35 38 32 30 35 39 44 51 51 49 47 47 48 48 51 48 42 42 40 34 37 39 34 35 40 42 44 44 43 46 50 49 45 46 48 48 49 49 45 42 42 41 38 36 34 33 33 34 34 33 30 27 24 21 21 21 19 17 17 17
30 27 27 26 25 25 25 26 27 27 25 23 19 14 10 6 2 3 4 3 2 6 8 10 15 15 16 26 36 38 32 28 31 37 44 48 49 48 46 44 44 45 48 45 38 38 35 26 31 38 34 35 41 43 42 39 41 46 49 46 41 40 43 44 47 50 50 49 46 43 41 39 36 36 37 35 35 33 28 22 20 20 18 15 15 16 16 17
30 26 26 28 27 27 27 26 26 27 26 24 21 16 11 7 3 0 3 5 7 10 11 14 18 18 24 32 35 36 30 24 27 35 42 46 46 47 46 43 41 41 43 42 36 35 32 26 31 41 39 38 41 44 42 38 42 48 46 41 37 36 39 39 40 42 45 48 48 44 44 44 42 42 40 37 37 34 27 20 16 17 17 15 15 16 16 16
31 27 26 28 29 29 28 27 27 27 25 23 20 14 10 7 4 3 5 8 11 12 14 18 20 24 32 36 34 30 24 20 24 32 40 44 45 46 46 45 43 38 40 41 35 32 32 31 35 39 41 41 43 47 46 41 45 51 46 39 37 38 37 34 32 33 34 39 44 44 42 43 45 45 41 39 41 36 29 23 18 16 15 13 14 15 14 14
31 29 28 29 29 30 29 27 27 26 24 21 17 15 14 13 12 10 10 11 14 17 19 22 26 32 35 34 31 25 20 21 23 28 38 44 45 47 46 47 46 43 44 43 36 32 32 34 35 35 41 46 48 49 47 43 45 50 48 43 41 42 41 35 29 28 30 30 34 38 37 36 39 40 38 40 42 37 32 27 23 21 19 16 15 15 14 13
30 30 30 30 30 29 27 25 25 25 25 23 21 20 20 20 20 18 17 19 22 23 24 26 30 35 34 30 28 22 20 24 20 22 36 42 45 48 46 45 46 49 50 43 36 34 35 36 30 27 33 39 43 46 45 43 43 43 44 45 44 43 42 40 31 25 27 27 25 28 31 32 32 31 33 39 41 36 33 30 25 24 23 20 19 17 15 15
30 29 30 30 30 29 25 23 23 25 25 23 22 20 19 20 22 23 22 22 23 22 23 26 30 33 30 26 25 19 19 25 21 21 33 38 43 47 45 45 46 49 50 42 35 36 37 34 28 24 26 31 40 44 38 36 37 36 37 40 43 44 41 39 33 24 23 25 24 23 25 29 30 25 27 35 38 34 33 30 24 23 23 21 20 19 18 17
29 28 28 29 31 30 26 22 21 22 22 21 20 19 16 17 20 22 20 18 19 19 23 28 31 31 26 23 24 22 22 24 23 24 31 36 41 44 45 46 43 43 43 38 36 36 33 30 29 31 32 35 45 46 36 35 39 39 37 34 36 41 39 35 30 24 22 22 22 21 21 25 29 28 29 34 36 33 31 29 23 19 19 19 19 19 19 19
27 26 27 29 31 30 27 23 20 20 21 21 21 19 19 20 20 19 20 19 20 23 27 31 31 29 24 22 26 29 26 24 24 25 29 35 41 42 44 45 39 38 39 36 35 34 31 31 31 34 36 38 48 51 43 43 46 46 44 36 32 35 36 34 32 28 26 23 19 19 21 22 26 28 30 33 33 32 31 31 26 21 18 16 16 18 19 19
24 22 24 27 30 29 26 23 21 19 20 20 20 21 21 22 22 23 25 26 26 28 29 29 28 24 21 23 28 27 22 22 26 24 25 34 42 42 43 44 39 37 37 36 35 33 30 31 30 32 35 35 43 51 49 46 47 50 48 41 36 36 33 34 35 31 28 26 21 21 21 20 21 24 27 28 28 27 29 30 28 23 19 17 17 19 20 20
21 21 22 25 26 26 27 26 23 20 19 17 18 19 18 18 21 24 26 27 27 27 27 27 25 20 19 22 24 20 18 23 27 25 25 33 41 39 39 41 38 35 35 37 38 34 30 30 29 32 34 30 33 44 50 48 46 49 49 44 39 38 35 35 36 33 31 29 26 25 25 23 21 23 26 27 25 23 22 20 18 17 18 18 19 20 20 21
19 19 22 24 23 22 24 27 26 23 19 16 15 16 15 15 17 20 23 23 22 22 23 23 19 17 19 22 23 22 24 25 25 27 28 33 39 39 38 36 32 32 34 35 36 35 31 30 30 31 29 24 23 30 41 48 46 43 46 46 40 35 34 34 34 32 33 33 30 29 29 27 26 26 27 28 27 25 21 16 13 13 14 15 17 19 20 21
18 18 19 22 22 19 18 23 25 22 18 14 14 14 12 11 11 13 16 19 19 19 19 17 15 19 23 24 24 25 25 24 25 28 31 36 40 39 36 30 26 30 32 32 34 34 31 31 30 28 23 20 20 20 26 38 45 45 44 43 41 38 35 33 33 33 32 32 32 32 31 29 29 29 29 30 30 27 22 16 12 11 11 12 15 18 20 21
14 15 17 19 19 17 16 18 21 21 16 13 12 10 7 8 9 12 15 17 17 18 18 17 19 22 22 22 23 22 21 23 25 28 32 36 40 41 37 30 26 28 30 31 33 31 30 31 31 29 26 24 24 23 20 24 34 44 45 41 41 42 39 36 35 34 31 29 30 33 35 34 33 33 33 34 33 31 26 22 18 15 13 13 15 17 19 20
14 13 14 15 16 16 17 17 18 17 15 14 13 12 10 10 12 15 17 17 17 19 20 18 19 19 17 18 21 20 19 21 22 25 30 33 36 40 42 37 30 28 30 32 32 30 31 34 34 32 32 30 30 29 28 23 23 33 42 42 41 42 43 41 38 36 34 32 32 34 35 35 36 35 34 34 34 33 33 30 26 22 19 19 19 20 21 21
16 14 12 12 13 15 16 17 16 16 16 16 15 14 14 12 13 15 19 20 18 18 18 15 13 13 14 17 19 19 20 19 18 22 28 31 31 35 41 40 33 29 31 33 32 31 33 36 37 35 33 33 33 32 31 27 22 26 34 39 39 41 43 44 41 38 37 37 37 38 36 36 38 39 36 33 31 30 29 27 24 21 20 20 20 21 23 23
Wind_Direction
275 274 272 271 270 268 266 265 263 262 260 258 255 252 250 247 246 245 245 245 245 243 242 241 242 242 242 242 242 241 241 241 240 239 239 239 239 239 238 238 238 238 237 237 238 239 240 240 240 241 240 240 240 240 240 241 243 243 242 242 242 243 245 248 250 252 253 256 259 265 263 258 257 259 260 258 250 247 249 253 257 262 266 267 271 274 274 275
276 274 272 270 269 267 266 265 263 262 261 259 257 255 252 250 247 245 244 244 245 245 244 243 243 243 242 242 242 241 241 241 240 240 239 239 238 238 238 237 237 238 237 236 236 237 238 239 239 240 239 239 239 239 239 240 241 243 243 242 242 243 245 247 250 251 252 257 261 263 259 252 248 253 257 259 257 253 250 251 258 262 263 264 267 271 274 274
277 274 272 270 268 266 265 263 262 261 260 258 257 256 254 252 249 247 245 244 244 244 244 244 244 243 243 243 242 242 241 241 240 239 240 239 238 237 237 237 237 237 237 236 235 235 236 237 237 238 238 238 237 237 238 238 239 241 242 242 241 243 245 246 247 248 250 250 245 240 244 249 251 253 256 257 259 258 252 248 256 258 259 263 263 265 269 269
277 275 272 270 268 266 264 262 261 260 259 258 256 255 254 253 251 249 247 246 244 243 243 243 244 244 243 243 243 242 241 241 240 239 239 239 238 237 236 236 236 236 237 236 235 234 235 236 236 237 238 237 237 236 236 237 238 240 241 242 242 243 243 245 245 245 243 216 209 237 244 248 252 254 255 253 254 259 260 254 256 255 255 259 260 261 265 266
278 276 273 271 268 266 264 263 261 260 259 258 257 255 254 253 252 250 249 247 246 244 243 242 242 243 243 242 242 242 241 241 240 239 238 238 238 237 236 236 235 235 236 236 235 234 234 234 235 235 236 236 236 236 236 237 238 239 241 241 242 242 241 241 241 241 235 204 200 233 251 253 253 250 251 250 249 255 259 257 260 259 255 257 259 259 260 263
281 278 275 273 270 268 266 264 262 261 259 258 257 256 255 253 252 251 249 248 247 246 244 243 242 242 241 241 241 241 241 240 239 238 238 238 238 237 236 236 235 234 235 235 235 234 234 234 234 234 234 235 236 236 236 237 238 239 241 240 239 240 239 237 236 225 203 200 203 219 241 253 254 250 250 249 248 250 253 254 260 261 258 257 258 258 257 261
283 281 278 275 273 270 268 266 264 262 261 259 257 256 255 254 253 251 250 248 247 246 245 244 243 242 241 240 240 240 240 240 240 239 237 237 237 237 236 236 235 234 234 234 234 233 233 234 234 233 234 234 235 235 235 235 237 238 239 239 236 236 236 235 234 218 197 200 209 216 228 240 248 250 249 248 248 248 248 250 256 260 260 257 256 257 256 258
286 283 281 279 276 274 271 269 266 264 262 261 259 257 255 254 253 252 251 249 247 246 244 243 243 242 241 240 239 239 239 240 239 237 236 235 235 236 236 235 235 234 233 233 233 232 232 233 233 233 233 233 233 233 233 234 235 236 237 237 234 232 232 232 231 223 212 211 216 222 227 231 239 245 246 248 249 248 246 246 253 258 262 265 263 259 257 257
288 284 282 280 278 276 273 271 268 266 264 262 260 258 256 254 252 251 250 249 248 247 245 243 242 241 241 240 239 238 238 238 237 237 236 235 235 235 235 235 234 233 232 232 231 231 231 231 232 232 232 231 231 231 232 233 233 234 236 235 233 230 229 230 225 219 220 223 225 231 237 236 237 242 246 250 249 244 246 246 250 254 255 262 268 265 263 264
288 285 281 279 277 275 274 272 269 267 265 262 260 258 256 254 252 251 249 248 247 246 246 244 242 241 240 240 239 237 237 237 238 239 239 238 235 234 234 234 233 232 231 231 230 230 229 230 230 230 230 230 230 229 229 231 232 233 234 233 231 229 228 227 223 216 218 229 235 238 246 247 242 244 248 251 244 236 242 245 248 251 250 252 256 257 260 264
291 288 285 282 279 276 274 272 270 268 265 262 260 258 256 255 253 251 249 247 246 245 245 244 243 241 239 239 238 237 237 237 238 238 238 237 234 233 233 234 233 232 230 230 229 229 228 228 228 229 229 229 229 229 228 228 229 231 232 232 229 227 227 225 223 218 215 227 239 239 239 240 239 244 245 247 243 235 239 243 246 250 251 249 250 252 255 262
296 294 291 288 285 281 278 275 272 270 267 264 261 259 257 255 253 252 250 248 246 245 244 243 242 241 240 238 236 237 238 236 235 236 236 234 231 230 231 232 233 232 230 229 228 227 226 226 227 227 227 227 227 228 228 227 227 228 230 231 227 225 226 224 221 220 217 225 237 234 226 227 230 237 242 243 242 237 237 241 245 249 251 249 249 254 255 262
302 300 297 294 291 287 283 279 275 271 268 266 263 260 258 256 254 252 251 249 247 245 243 242 241 240 239 238 235 236 238 236 234 234 235 232 228 228 228 228 231 231 229 228 228 227 225 224 225 226 226 226 226 226 226 226 226 226 229 231 227 224 225 223 220 222 224 229 237 234 226 228 229 236 244 246 242 238 239 242 245 250 256 254 250 254 255 258
308 306 303 301 298 295 291 287 281 276 270 266 263 260 258 256 255 253 251 250 248 246 244 242 241 239 237 235 235 236 236 235 234 233 234 233 227 226 227 226 227 228 228 226 225 226 226 224 223 223 224 224 224 224 222 222 224 224 227 230 228 227 226 223 221 224 227 230 236 235 231 230 231 238 245 249 246 243 243 245 249 251 255 255 249 249 249 249
313 311 309 307 305 303 300 297 292 286 279 272 265 261 258 256 254 252 251 250 249 247 245 244 241 240 237 232 233 236 235 235 235 233 231 231 227 224 226 226 224 224 225 223 222 221 223 224 223 222 222 222 222 222 221 220 221 220 223 227 228 228 227 223 223 226 228 229 231 236 236 231 233 240 244 249 251 249 248 249 252 252 252 254 251 249 248 247
316 314 313 313 312 311 310 307 303 296 288 280 272 265 259 256 254 251 250 249 248 247 245 244 243 240 236 233 233 235 235 234 234 232 229 229 227 222 223 225 223 223 222 220 220 218 218 221 223 222 220 220 220 220 221 221 220 220 223 225 226 227 227 223 222 226 229 228 228 234 239 237 236 242 244 248 252 252 253 251 250 252 251 252 252 253 254 252
318 317 317 316 316 317 317 313 308 301 293 285 277 269 262 256 253 251 249 247 246 245 244 244 243 241 237 235 234 233 232 231 230 231 228 226 225 221 220 222 222 222 221 218 217 217 216 216 218 220 219 218 218 218 219 221 222 223 224 225 226 226 226 224 222 225 228 228 229 233 239 240 239 241 242 246 251 252 253 250 249 251 250 250 252 256 259 260
319 318 318 319 319 321 321 316 309 302 295 288 281 273 265 257 252 250 248 246 244 243 243 243 243 241 238 236 234 231 230 229 229 230 228 225 224 221 219 220 220 221 220 217 215 215 215 215 214 215 217 217 217 218 219 222 224 225 224 223 225 226 226 225 222 225 227 227 232 234 238 241 242 242 242 245 250 251 252 250 251 253 251 250 252 255 259 262
320 320 319 321 321 322 324 319 311 304 299 294 288 280 271 261 253 249 247 245 243 241 241 240 240 239 238 238 235 232 229 227 227 228 228 225 222 221 218 217 218 219 219 217 215 214 214 214 214 213 215 216 218 220 221 222 222 224 225 224 225 227 227 225 222 227 228 227 231 237 241 242 243 245 246 247 249 251 254 254 253 252 250 251 252 253 255 259
322 321 321 322 321 324 327 321 311 306 303 298 295 290 279 267 257 250 247 245 243 241 239 238 237 236 236 238 237 233 229 226 225 224 225 224 222 220 218 215 216 217 218 217 214 213 213 213 214 216 217 217 217 219 220 219 219 222 224 226 226 227 228 225 219 225 230 228 228 234 243 244 244 245 246 247 249 251 255 257 254 250 249 251 253 253 252 255
323 322 322 324 325 329 331 322 309 304 304 303 299 293 285 274 264 256 251 247 244 241 239 238 236 233 233 236 237 235 230 227 225 224 223 222 221 220 218 216 216 217 218 217 214 211 212 213 215 216 217 216 215 216 217 217 217 219 221 225 226 226 228 225 217 221 231 232 230 233 240 244 246 246 244 244 247 250 253 255 254 252 251 252 254 256 254 254
323 322 323 326 330 336 335 324 308 298 299 304 300 292 286 280 276 269 260 251 246 244 240 237 236 233 230 232 234 234 231 226 224 225 224 221 218 217 217 216 216 216 217 218 215 212 213 214 214 214 214 214 212 213 215 214 215 217 218 221 224 223 224 223 215 215 227 231 233 238 241 246 249 247 246 244 244 249 251 251 253 253 252 253 255 257 255 253
324 323 325 329 335 342 340 328 312 297 293 297 296 290 286 283 279 275 271 260 247 244 242 238 236 233 229 227 230 232 231 226 223 222 223 222 219 215 213 214 213 213 215 217 217 215 214 213 211 211 212 211 210 211 212 212 214 216 215 217 220 219 218 219 212 207 221 231 235 241 245 248 247 244 247 248 248 249 252 254 255 253 252 252 255 257 256 254
326 327 329 334 341 348 347 337 322 303 293 295 294 289 287 284 280 279 282 276 255 242 244 239 234 232 229 225 226 229 228 226 223 220 219 219 219 215 212 211 211 210 211 214 216 216 215 212 209 209 209 209 210 210 208 209 212 214 215 217 218 216 213 215 209 203 219 232 235 240 244 248 246 243 247 251 250 250 253 256 256 255 251 250 254 256 257 257
329 330 332 339 349 358 360 352 338 315 300 297 293 290 291 288 286 287 288 285 265 238 245 242 234 230 227 224 223 225 225 224 221 219 218 215 213 213 212 210 209 209 209 210 213 213 212 212 210 208 208 208 210 209 207 208 210 212 214 215 218 215 209 208 203 202 219 227 229 235 239 246 250 250 251 251 250 251 252 253 253 254 252 250 253 256 258 257
332 332 335 345 357 9 12 6 358 339 314 303 299 296 295 292 291 293 292 290 274 245 247 245 238 230 225 224 222 221 222 222 219 217 216 213 209 208 209 209 208 208 206 207 210 210 210 210 207 208 208 208 208 207 206 207 208 210 211 212 217 215 207 201 195 202 222 227 231 236 241 248 253 255 255 253 251 250 246 244 245 251 254 252 253 256 257 252
334 335 337 346 360 13 16 14 15 7 347 325 315 308 302 302 300 300 299 289 265 257 251 240 237 228 221 222 221 218 218 219 218 215 212 210 207 204 204 206 207 207 205 204 207 208 208 207 205 207 209 208 208 205 204 207 206 207 209 207 209 213 210 198 189 201 226 236 238 239 243 248 250 249 250 251 249 242 236 236 239 248 256 257 256 256 255 249
338 338 339 344 352 6 13 15 22 22 16 4 344 330 325 323 316 308 301 265 218 278 275 232 228 221 212 215 217 214 212 214 214 211 207 205 204 202 202 203 203 204 203 203 206 207 206 206 205 206 209 208 206 205 205 207 206 203 205 202 198 204 205 191 187 205 227 236 236 234 237 242 243 242 243 245 243 233 230 236 241 249 257 260 260 258 257 256
342 341 344 345 344 354 5 10 17 23 26 25 16 1 350 341 331 318 301 205 134 51 15 243 216 211 208 211 212 207 204 206 206 203 201 199 199 200 201 201 198 197 201 202 204 205 205 206 205 206 208 205 202 203 205 207 205 199 198 196 192 196 193 181 186 205 220 229 232 232 235 239 243 244 243 242 241 235 236 243 247 251 256 259 260 257 258 261
344 345 348 352 348 346 354 1 7 14 25 30 30 27 25 20 9 357 354 107 71 48 17 214 172 194 203 204 206 203 199 196 194 194 195 193 195 197 199 199 195 192 195 200 201 203 205 205 205 205 206 203 200 200 203 206 203 194 192 192 191 196 192 182 188 201 216 226 229 233 237 240 244 246 244 242 242 241 242 246 249 251 254 256 258 257 257 260
346 348 350 355 357 353 351 354 357 2 13 22 26 30 33 34 32 28 23 19 17 16 337 214 171 183 198 197 198 200 193 183 183 189 188 187 191 194 196 197 194 190 190 195 199 200 202 204 204 203 202 200 199 200 201 204 200 190 190 191 190 194 192 185 191 204 218 225 227 231 237 241 246 247 246 246 247 247 246 249 252 251 253 253 254 255 254 255
347 350 350 351 358 3 360 356 354 355 360 5 12 21 26 24 24 20 13 6 360 0 350 225 198 193 198 194 190 190 184 175 178 186 185 185 187 190 195 195 192 191 190 191 196 198 199 202 203 201 200 198 199 198 198 202 197 189 190 192 188 191 190 186 194 206 216 224 227 230 232 236 244 247 248 250 250 247 245 247 248 248 250 251 252 252 249 250
348 349 350 348 352 2 5 1 358 357 358 357 358 6 15 18 16 11 6 0 353 352 347 244 213 200 192 189 180 174 173 172 176 183 184 183 184 186 194 195 191 193 195 192 194 197 197 199 201 201 199 198 198 197 196 199 196 191 192 191 186 189 190 190 197 204 211 220 225 227 228 231 238 245 249 252 253 248 242 241 243 245 248 247 249 252 249 246
351 349 348 346 348 354 359 360 358 357 358 359 356 355 2 14 16 9 4 357 348 345 334 231 206 188 173 176 171 163 165 172 177 181 183 182 182 184 190 193 190 190 194 192 190 194 194 196 200 200 199 198 197 197 196 197 196 195 195 190 186 191 196 197 201 204 206 214 221 224 226 228 234 242 247 249 248 244 240 239 240 242 245 246 249 253 253 249
354 352 348 345 344 345 350 354 353 350 353 358 357 354 354 5 20 20 15 11 4 3 359 195 183 167 160 170 167 157 161 175 177 177 182 182 181 183 186 191 190 188 191 190 186 186 189 195 198 197 199 199 198 196 194 195 198 196 189 185 186 194 201 204 206 206 207 211 219 225 227 229 232 236 241 243 244 243 241 242 242 244 247 248 250 252 254 252
357 357 352 346 342 341 346 351 351 352 356 357 354 351 350 355 25 41 39 32 21 36 101 162 166 157 159 168 162 155 161 177 176 175 181 181 180 180 182 187 187 188 191 188 185 184 185 193 196 193 197 198 198 196 189 191 198 192 183 183 189 196 204 209 210 209 210 213 220 226 229 231 231 232 235 239 243 246 247 247 246 249 251 251 253 253 252 248
359 360 358 353 347 345 347 351 354 355 356 356 353 348 342 341 23 57 59 43 21 76 129 156 161 154 157 162 156 153 161 175 177 176 178 179 179 177 179 183 184 189 191 184 183 187 186 192 194 190 191 191 195 195 186 188 195 190 186 186 188 195 204 211 214 214 214 216 221 226 229 231 232 232 236 241 246 252 254 252 250 251 254 253 250 248 245 243
3 2 2 1 357 353 352 352 355 359 1 359 354 346 333 322 355 78 90 68 89 152 149 153 155 150 152 157 155 153 160 174 179 178 177 177 176 173 175 179 180 187 189 179 175 180 180 182 185 184 178 174 183 187 183 189 194 188 186 186 186 195 203 208 214 217 217 219 222 226 229 232 234 237 240 244 250 254 252 252 251 250 251 248 241 242 245 245
10 7 7 8 6 2 360 356 356 1 5 360 351 344 338 330 320 105 129 135 144 141 135 143 150 146 147 154 157 154 157 170 175 176 177 175 173 171 171 171 173 181 183 174 168 170 173 175 181 182 173 169 179 181 180 190 192 184 183 187 191 199 204 207 213 216 220 223 223 226 231 233 235 239 243 247 251 251 249 250 252 249 246 243 239 242 246 244
18 18 16 16 16 14 13 11 5 4 5 359 354 359 10 20 40 92 116 132 140 133 130 137 141 140 144 150 152 148 151 160 165 170 175 174 171 169 167 164 165 171 169 165 165 168 175 181 184 182 175 177 185 182 180 188 187 181 183 189 196 199 201 205 212 214 218 224 224 224 229 235 237 240 243 246 248 251 253 253 247 240 237 238 239 243 244 242
21 24 23 22 24 26 25 24 20 18 20 22 25 36 47 58 73 90 105 119 128 127 127 130 134 137 142 145 140 137 146 150 152 167 173 173 170 166 165 161 160 163 161 161 166 171 180 188 188 186 185 186 187 183 183 184 179 179 184 191 198 198 195 197 204 213 216 221 225 224 225 232 239 243 244 245 247 251 255 253 246 241 240 241 245 247 247 247
21 23 23 24 30 35 33 34 38 41 45 51 55 59 67 74 78 87 100 112 118 120 120 124 135 139 138 135 129 128 143 140 139 166 173 174 171 164 164 163 159 161 162 164 170 170 177 188 189 190 194 192 185 183 186 180 173 178 186 193 198 197 198 198 198 209 215 215 223 225 224 228 234 243 248 249 251 254 255 255 252 249 248 249 249 249 250 253
23 24 25 26 34 42 42 41 48 55 58 61 62 64 73 81 85 91 101 109 113 114 115 123 140 145 134 124 118 118 134 133 132 162 171 173 171 164 165 166 162 160 162 166 171 169 171 180 183 180 182 181 178 179 180 176 177 183 186 194 198 195 201 203 198 207 218 216 222 224 222 223 224 234 245 249 254 256 256 258 258 253 251 251 249 246 247 252
25 28 31 33 36 42 42 37 40 50 53 53 57 64 75 85 91 98 102 107 108 108 115 128 144 148 132 119 120 122 128 130 137 159 169 171 170 165 166 167 162 161 164 167 170 170 168 168 171 172 168 173 180 179 174 176 185 187 182 188 196 196 201 202 195 206 219 218 223 223 218 217 218 227 239 246 253 257 258 260 258 250 246 249 248 244 243 246
29 33 37 36 34 35 36 33 30 34 40 45 57 73 85 85 84 93 101 105 107 111 121 132 139 136 122 117 124 124 125 130 138 157 169 169 166 164 168 170 164 160 165 168 169 174 173 163 165 175 177 182 187 185 182 182 185 185 181 183 190 192 198 199 194 202 212 213 214 210 210 216 219 225 234 242 250 254 254 253 251 247 247 249 248 243 240 241
31 37 39 34 32 33 33 33 32 32 35 49 70 87 93 85 79 87 97 100 105 113 122 128 129 122 114 118 121 118 125 137 140 150 167 170 166 164 168 172 167 161 165 169 170 175 176 167 167 178 183 190 193 189 186 185 186 187 183 181 186 186 188 195 197 198 203 207 206 201 202 213 224 228 231 237 245 250 251 249 249 251 249 245 242 241 241 241
31 36 35 32 35 38 35 33 35 35 39 59 82 94 98 92 85 86 92 95 100 110 121 124 121 118 122 128 124 123 140 149 145 149 163 170 167 166 170 171 167 165 169 171 173 178 178 172 172 173 177 190 198 192 190 189 191 191 186 181 184 185 183 191 198 201 203 203 205 206 204 206 220 229 229 233 239 245 247 245 246 246 240 235 236 237 239 239
25 28 30 30 35 42 39 36 36 34 39 62 89 99 102 103 95 88 90 95 96 104 119 120 113 120 134 135 131 136 146 147 145 147 154 162 166 168 174 175 170 169 170 170 175 181 178 173 172 168 171 184 192 193 197 198 197 197 193 188 185 180 180 189 197 204 212 209 206 210 212 212 219 226 228 233 238 241 241 237 236 236 233 233 235 235 235 235
20 21 26 33 39 45 43 40 42 42 42 60 87 100 103 104 101 96 99 104 104 110 118 114 114 130 135 130 132 140 142 140 143 147 151 158 164 168 175 182 178 172 171 171 174 175 172 169 163 153 154 166 170 181 201 205 203 205 204 198 194 189 185 191 197 201 210 213 211 215 219 218 221 225 228 233 239 242 240 235 235 236 230 229 231 232 235 235
20 18 23 30 36 41 39 38 47 54 57 68 78 78 74 85 105 116 117 116 117 124 124 114 119 131 128 121 126 134 133 130 137 147 153 160 166 169 174 182 181 175 174 174 171 168 166 164 157 152 159 164 164 176 202 210 207 210 210 205 204 203 197 197 203 205 207 207 210 220 225 224 225 228 230 234 240 246 247 245 244 239 226 221 223 228 233 236
19 21 26 27 28 34 37 38 49 60 67 70 67 56 55 79 106 118 122 122 125 133 135 125 120 128 132 128 125 128 133 132 135 146 157 163 170 174 179 182 180 176 175 170 165 162 164 162 158 160 169 169 167 181 200 203 200 208 211 209 210 212 207 202 207 213 212 205 203 213 222 226 228 231 233 236 241 246 250 251 250 247 241 238 237 238 241 243
12 14 22 25 25 31 36 42 55 67 70 68 66 61 63 82 110 123 125 125 126 133 144 147 132 129 144 146 136 132 138 139 137 148 161 168 173 180 184 186 185 182 177 168 160 159 164 167 166 165 168 169 168 180 195 199 193 196 202 206 210 216 215 209 207 211 214 213 211 214 219 226 231 233 235 237 240 245 248 250 253 255 252 246 244 245 246 247
Height
5711 5709 5708 5707 5706 5706 5705 5705 5705 5705 5706 5706 5706 5707 5707 5708 5710 5711 5712 5714 5716 5718 5720 5722 5724 5726 5729 5731 5734 5737 5740 5743 5746 5750 5755 5757 5758 5762 5766 5770 5773 5776 5779 5782 5785 5787 5790 5795 5797 5799 5802 5805 5808 5812 5815 5817 5819 5820 5822 5823 5825 5828 5832 5836 5839 5842 5846 5848 5851 5855 5854 5855 5854 5851 5851 5855 5858 5857 5859 5862 5861 5862 5861 5861 5861 5860 5863 5864
5705 5703 5702 5701 5700 5700 5699 5699 5699 5699 5699 5699 5700 5700 5701 5702 5703 5704 5705 5707 5709 5711 5713 5715 5717 5719 5722 5725 5728 5731 5734 5737 5740 5745 5748 5749 5752 5756 5759 5764 5767 5770 5773 5777 5780 5783 5786 5790 5792 5794 5797 5800 5804 5807 5810 5812 5814 5815 5817 5819 5822 5827 5831 5834 5837 5840 5844 5846 5851 5852 5849 5850 5849 5847 5848 5852 5854 5852 5855 5859 5859 5861 5859 5858 5860 5859 5860 5860
5698 5697 5696 5695 5694 5693 5693 5692 5692 5692 5692 5693 5693 5694 5695 5695 5696 5698 5699 5700 5702 5704 5706 5708 5710 5712 5715 5718 5721 5724 5728 5730 5734 5738 5740 5742 5746 5750 5753 5757 5761 5763 5767 5771 5775 5778 5781 5784 5787 5789 5792 5796 5800 5803 5805 5808 5809 5811 5813 5815 5819 5825 5828 5832 5834 5837 5842 5846 5848 5846 5845 5846 5844 5845 5847 5850 5850 5847 5852 5857 5857 5857 5855 5855 5857 5856 5856 5856
5692 5691 5689 5688 5687 5686 5686 5685 5685 5685 5685 5686 5686 5687 5688 5688 5690 5690 5692 5693 5695 5697 5699 5701 5702 5704 5708 5711 5714 5718 5721 5724 5728 5731 5733 5736 5740 5744 5748 5751 5755 5758 5761 5765 5770 5774 5777 5779 5782 5785 5788 5792 5796 5798 5801 5804 5806 5807 5809 5813 5818 5823 5825 5829 5831 5835 5841 5844 5844 5841 5840 5841 5841 5844 5845 5846 5847 5845 5850 5854 5852 5852 5851 5851 5853 5853 5853 5853
5687 5685 5683 5682 5681 5680 5679 5679 5678 5678 5678 5679 5679 5680 5680 5681 5682 5683 5684 5686 5687 5690 5691 5693 5695 5697 5701 5704 5707 5711 5715 5718 5722 5725 5727 5730 5733 5738 5742 5745 5749 5753 5755 5759 5765 5769 5771 5774 5777 5780 5784 5788 5791 5794 5798 5801 5803 5804 5807 5812 5816 5819 5822 5826 5828 5833 5840 5841 5841 5839 5836 5834 5837 5841 5841 5842 5844 5845 5850 5850 5846 5847 5848 5848 5848 5850 5851 5850
5681 5679 5678 5677 5675 5674 5673 5672 5672 5672 5672 5672 5672 5673 5673 5674 5675 5676 5677 5678 5680 5682 5684 5686 5687 5690 5693 5696 5700 5704 5708 5711 5714 5718 5721 5724 5727 5732 5736 5739 5743 5747 5750 5754 5759 5763 5766 5769 5772 5776 5780 5784 5787 5791 5796 5798 5799 5802 5805 5810 5813 5816 5819 5822 5825 5830 5836 5837 5837 5836 5832 5829 5832 5837 5836 5837 5840 5844 5848 5846 5842 5841 5844 5845 5845 5847 5848 5848
5675 5674 5672 5671 5670 5669 5668 5667 5666 5666 5665 5665 5665 5666 5666 5667 5668 5669 5670 5671 5673 5675 5677 5679 5680 5683 5685 5689 5693 5697 5701 5704 5707 5711 5714 5718 5722 5725 5730 5734 5737 5741 5745 5749 5753 5758 5761 5764 5768 5772 5776 5779 5784 5788 5792 5794 5796 5799 5802 5807 5811 5813 5816 5818 5821 5825 5828 5829 5829 5829 5829 5829 5830 5833 5831 5832 5839 5844 5845 5844 5840 5838 5839 5842 5843 5844 5846 5847
5670 5668 5666 5665 5664 5663 5661 5661 5660 5659 5659 5658 5659 5659 5659 5660 5660 5662 5663 5664 5666 5667 5670 5672 5673 5675 5678 5682 5685 5690 5696 5697 5698 5702 5707 5712 5716 5719 5724 5727 5731 5735 5739 5743 5748 5752 5756 5759 5763 5767 5771 5775 5780 5784 5788 5790 5792 5796 5799 5804 5807 5810 5813 5815 5818 5822 5823 5824 5823 5823 5826 5829 5829 5829 5826 5830 5839 5841 5841 5841 5839 5837 5839 5841 5842 5842 5844 5845
5664 5662 5661 5659 5657 5656 5655 5654 5653 5653 5652 5652 5652 5651 5652 5652 5653 5654 5655 5657 5658 5660 5662 5664 5666 5668 5671 5675 5678 5686 5690 5685 5687 5694 5700 5706 5710 5714 5717 5720 5725 5730 5733 5737 5741 5746 5750 5755 5758 5762 5766 5771 5774 5779 5783 5785 5789 5794 5797 5800 5804 5807 5810 5812 5814 5818 5820 5819 5819 5820 5824 5827 5829 5826 5823 5828 5836 5836 5836 5838 5836 5836 5838 5840 5841 5843 5843 5844
5658 5656 5654 5653 5651 5649 5648 5646 5646 5645 5644 5644 5644 5644 5644 5644 5645 5646 5647 5649 5650 5653 5654 5656 5658 5661 5665 5668 5673 5681 5678 5675 5683 5692 5696 5701 5706 5709 5711 5714 5719 5724 5728 5732 5736 5740 5746 5750 5753 5757 5761 5764 5769 5774 5778 5781 5787 5791 5793 5797 5801 5804 5806 5808 5811 5814 5816 5815 5816 5820 5823 5826 5828 5825 5821 5826 5831 5831 5831 5834 5833 5832 5834 5836 5839 5841 5842 5842
5652 5650 5648 5646 5645 5643 5641 5639 5638 5637 5637 5636 5636 5636 5636 5636 5637 5638 5639 5641 5642 5645 5646 5648 5650 5654 5658 5660 5670 5674 5668 5671 5681 5685 5689 5697 5702 5704 5706 5710 5714 5718 5722 5726 5731 5735 5740 5744 5748 5751 5755 5759 5764 5769 5773 5778 5784 5786 5789 5793 5797 5800 5802 5805 5808 5811 5813 5811 5813 5818 5821 5823 5825 5823 5820 5822 5825 5827 5828 5830 5830 5829 5830 5834 5837 5838 5840 5840
5647 5644 5643 5640 5638 5637 5635 5633 5631 5630 5629 5628 5627 5627 5627 5627 5628 5629 5631 5632 5634 5636 5638 5641 5642 5647 5650 5655 5667 5666 5660 5668 5673 5675 5683 5690 5694 5697 5701 5705 5708 5713 5717 5721 5726 5730 5734 5738 5741 5745 5750 5755 5760 5764 5770 5775 5779 5782 5785 5788 5792 5796 5797 5801 5805 5807 5808 5808 5810 5815 5818 5819 5820 5819 5817 5819 5822 5825 5826 5827 5827 5826 5828 5833 5835 5836 5839 5839
5640 5638 5636 5633 5631 5629 5627 5625 5623 5622 5620 5619 5619 5618 5618 5618 5619 5620 5622 5623 5625 5628 5630 5632 5635 5640 5643 5652 5661 5657 5654 5661 5665 5670 5677 5681 5686 5690 5694 5699 5703 5708 5712 5717 5721 5725 5729 5732 5736 5741 5746 5750 5755 5760 5767 5771 5774 5778 5781 5783 5788 5791 5793 5798 5802 5803 5804 5805 5808 5812 5815 5816 5816 5816 5814 5816 5820 5823 5824 5824 5825 5825 5826 5831 5833 5834 5836 5837
5634 5631 5628 5625 5622 5620 5617 5615 5613 5611 5610 5609 5608 5608 5608 5609 5609 5610 5612 5614 5616 5618 5621 5624 5628 5631 5637 5648 5652 5647 5648 5654 5659 5667 5671 5674 5680 5684 5688 5693 5697 5701 5706 5711 5716 5720 5724 5727 5731 5736 5741 5746 5752 5756 5761 5765 5769 5774 5777 5778 5783 5786 5789 5795 5797 5799 5801 5804 5807 5810 5811 5813 5814 5813 5812 5815 5818 5820 5822 5822 5823 5823 5825 5827 5830 5830 5831 5833
5627 5624 5621 5617 5614 5610 5607 5603 5600 5598 5596 5596 5596 5596 5597 5597 5599 5600 5601 5603 5605 5607 5611 5615 5619 5622 5630 5642 5642 5638 5643 5649 5656 5661 5664 5667 5673 5679 5682 5686 5691 5694 5699 5705 5709 5713 5718 5722 5725 5731 5737 5742 5747 5751 5755 5759 5763 5768 5770 5773 5778 5781 5786 5791 5794 5796 5799 5803 5806 5807 5808 5810 5811 5810 5812 5814 5816 5817 5818 5819 5820 5821 5823 5825 5827 5827 5827 5829
5621 5618 5614 5610 5606 5602 5598 5593 5589 5584 5582 5581 5581 5582 5583 5584 5587 5588 5590 5592 5593 5597 5601 5605 5609 5613 5623 5633 5632 5633 5640 5646 5649 5651 5656 5661 5666 5672 5676 5680 5686 5689 5693 5698 5702 5707 5711 5716 5721 5727 5732 5735 5740 5747 5751 5754 5758 5762 5764 5769 5774 5778 5783 5787 5791 5794 5798 5802 5804 5804 5805 5807 5808 5808 5811 5813 5813 5815 5816 5817 5817 5818 5821 5823 5823 5823 5825 5827
5616 5612 5608 5604 5600 5595 5590 5584 5578 5573 5569 5567 5567 5567 5569 5571 5573 5575 5578 5580 5582 5586 5591 5595 5599 5605 5617 5623 5623 5627 5632 5636 5639 5641 5649 5656 5660 5665 5669 5674 5681 5685 5688 5692 5696 5701 5705 5710 5715 5721 5725 5730 5737 5742 5745 5748 5753 5757 5761 5766 5770 5774 5779 5784 5789 5792 5796 5799 5800 5802 5803 5803 5804 5806 5809 5810 5811 5813 5813 5814 5816 5817 5820 5821 5821 5821 5823 5825
5611 5607 5603 5598 5593 5589 5583 5575 5568 5563 5560 5557 5556 5555 5556 5558 5559 5562 5564 5565 5570 5575 5581 5586 5589 5597 5608 5609 5610 5617 5623 5628 5633 5637 5643 5649 5654 5659 5664 5670 5675 5679 5683 5686 5690 5695 5700 5704 5709 5714 5720 5725 5731 5735 5739 5745 5751 5754 5757 5762 5766 5771 5776 5781 5787 5790 5794 5797 5798 5800 5799 5799 5801 5803 5806 5808 5809 5810 5811 5813 5814 5816 5818 5819 5820 5821 5821 5821
5607 5602 5598 5593 5588 5583 5576 5567 5560 5555 5552 5550 5548 5548 5547 5547 5549 5551 5551 5553 5559 5565 5571 5575 5578 5589 5595 5594 5599 5609 5615 5621 5627 5631 5636 5643 5648 5653 5658 5663 5667 5672 5676 5681 5686 5690 5694 5699 5702 5708 5714 5721 5727 5732 5738 5744 5748 5751 5756 5760 5764 5769 5773 5780 5787 5789 5792 5795 5796 5797 5796 5796 5799 5801 5804 5806 5807 5807 5809 5811 5813 5815 5816 5817 5818 5819 5820 5820
5603 5598 5593 5588 5583 5577 5569 5559 5553 5549 5547 5546 5544 5543 5542 5541 5541 5542 5542 5544 5549 5555 5560 5563 5569 5580 5584 5584 5591 5600 5606 5612 5618 5623 5629 5636 5642 5647 5652 5656 5660 5665 5671 5677 5681 5685 5689 5692 5697 5706 5715 5721 5725 5730 5735 5740 5744 5749 5754 5759 5763 5768 5772 5779 5786 5787 5788 5792 5794 5795 5793 5793 5796 5798 5801 5802 5804 5805 5807 5809 5811 5813 5814 5814 5816 5817 5818 5818
5598 5594 5589 5584 5578 5571 5562 5553 5548 5545 5544 5542 5541 5540 5539 5537 5536 5536 5537 5538 5542 5546 5550 5554 5559 5568 5574 5577 5583 5589 5596 5605 5612 5618 5623 5629 5635 5641 5646 5651 5655 5661 5669 5673 5676 5680 5684 5688 5699 5709 5715 5718 5722 5726 5731 5736 5742 5746 5751 5756 5760 5765 5771 5778 5784 5785 5785 5788 5791 5792 5790 5789 5792 5795 5797 5799 5801 5803 5805 5807 5808 5810 5812 5812 5813 5814 5816 5816
5595 5590 5586 5580 5574 5566 5556 5548 5544 5542 5541 5540 5539 5538 5536 5534 5533 5533 5532 5534 5538 5539 5542 5545 5549 5557 5567 5571 5574 5578 5586 5598 5606 5612 5617 5622 5627 5634 5641 5646 5652 5659 5665 5668 5672 5676 5680 5690 5701 5706 5708 5713 5717 5722 5727 5733 5738 5742 5747 5752 5757 5763 5769 5775 5781 5783 5782 5784 5787 5788 5787 5788 5790 5792 5793 5796 5799 5801 5803 5804 5806 5808 5809 5810 5811 5812 5813 5813
5591 5587 5582 5577 5570 5561 5552 5544 5541 5539 5538 5537 5536 5535 5533 5532 5531 5529 5528 5530 5533 5534 5535 5539 5543 5548 5556 5563 5567 5569 5578 5590 5598 5604 5611 5617 5623 5629 5635 5640 5647 5654 5658 5663 5669 5674 5681 5692 5697 5698 5701 5708 5713 5717 5723 5729 5734 5738 5743 5748 5753 5760 5766 5771 5778 5781 5780 5782 5784 5784 5785 5786 5787 5789 5791 5794 5797 5799 5801 5802 5803 5805 5807 5809 5809 5809 5810 5810
5587 5583 5579 5574 5567 5558 5549 5542 5539 5536 5535 5534 5533 5532 5531 5530 5528 5527 5526 5525 5529 5531 5530 5532 5536 5539 5548 5558 5559 5562 5572 5583 5590 5597 5604 5612 5620 5625 5629 5636 5642 5646 5652 5661 5668 5674 5681 5687 5689 5691 5698 5705 5708 5713 5719 5725 5730 5735 5741 5745 5750 5757 5763 5770 5776 5779 5779 5779 5779 5780 5782 5782 5784 5788 5789 5791 5795 5797 5799 5800 5801 5802 5804 5807 5807 5807 5807 5808
5584 5580 5576 5572 5565 5557 5548 5542 5537 5534 5532 5531 5530 5530 5528 5528 5527 5525 5524 5523 5527 5529 5526 5526 5530 5536 5544 5548 5550 5557 5567 5573 5582 5591 5599 5606 5613 5619 5626 5631 5636 5642 5650 5658 5664 5670 5675 5679 5685 5690 5696 5700 5704 5710 5716 5722 5727 5732 5738 5743 5748 5754 5761 5768 5774 5776 5774 5772 5772 5776 5779 5780 5782 5786 5787 5789 5792 5795 5797 5798 5798 5799 5801 5804 5804 5805 5805 5805
5581 5578 5574 5570 5564 5556 5548 5542 5536 5532 5530 5529 5528 5528 5527 5526 5525 5524 5523 5523 5524 5525 5523 5524 5528 5533 5538 5541 5546 5554 5559 5566 5578 5586 5593 5600 5607 5615 5621 5625 5632 5640 5648 5654 5660 5665 5668 5674 5682 5688 5692 5695 5700 5706 5713 5718 5724 5729 5736 5743 5749 5753 5758 5765 5771 5772 5769 5768 5770 5775 5778 5779 5781 5783 5785 5787 5789 5792 5794 5795 5796 5797 5799 5800 5802 5802 5802 5803
5579 5575 5572 5568 5563 5556 5549 5543 5537 5532 5530 5529 5527 5526 5526 5524 5524 5523 5522 5522 5522 5521 5521 5524 5526 5530 5534 5538 5542 5546 5555 5568 5576 5579 5587 5595 5601 5607 5613 5620 5630 5638 5644 5649 5653 5658 5664 5670 5677 5682 5686 5691 5697 5704 5711 5715 5721 5728 5735 5743 5748 5753 5756 5762 5769 5770 5768 5768 5770 5773 5775 5777 5779 5781 5783 5785 5786 5789 5791 5793 5795 5796 5796 5798 5799 5799 5799 5800
5577 5573 5570 5567 5563 5557 5550 5545 5539 5534 5531 5529 5527 5526 5525 5524 5523 5522 5521 5521 5522 5521 5521 5522 5524 5527 5531 5534 5536 5544 5557 5564 5567 5574 5584 5590 5595 5600 5606 5616 5626 5634 5639 5643 5650 5658 5663 5667 5673 5678 5683 5689 5696 5704 5709 5713 5719 5728 5736 5742 5747 5751 5754 5759 5765 5768 5768 5767 5766 5767 5770 5772 5774 5777 5781 5782 5784 5787 5789 5791 5793 5794 5795 5796 5797 5797 5797 5799
5576 5572 5568 5565 5562 5557 5553 5547 5542 5538 5533 5530 5528 5527 5526 5525 5523 5522 5522 5522 5522 5522 5521 5522 5523 5525 5528 5531 5534 5541 5548 5553 5562 5574 5580 5584 5591 5597 5604 5613 5621 5629 5635 5641 5649 5655 5659 5663 5670 5676 5681 5688 5696 5702 5707 5711 5718 5728 5735 5741 5745 5748 5751 5756 5760 5764 5766 5763 5762 5763 5765 5768 5769 5773 5777 5779 5782 5786 5788 5789 5790 5792 5794 5794 5796 5797 5797 5798
5575 5571 5568 5564 5561 5557 5554 5550 5545 5541 5537 5533 5531 5529 5528 5527 5525 5525 5525 5525 5524 5523 5523 5523 5524 5525 5526 5529 5532 5536 5542 5551 5562 5568 5572 5580 5589 5596 5604 5611 5616 5622 5630 5639 5645 5650 5657 5662 5668 5673 5680 5688 5695 5699 5704 5710 5717 5727 5733 5737 5742 5746 5750 5754 5757 5760 5760 5757 5758 5760 5762 5765 5766 5768 5772 5776 5781 5784 5785 5785 5787 5789 5792 5793 5794 5795 5796 5797
5574 5571 5567 5564 5561 5558 5554 5551 5548 5544 5540 5536 5534 5532 5530 5529 5528 5527 5527 5526 5526 5526 5525 5525 5526 5526 5526 5527 5531 5536 5542 5549 5556 5560 5567 5577 5584 5593 5601 5605 5610 5616 5624 5633 5640 5646 5654 5659 5664 5672 5679 5686 5691 5696 5701 5707 5715 5724 5729 5732 5738 5744 5748 5751 5752 5755 5754 5752 5755 5759 5762 5762 5762 5763 5768 5774 5778 5780 5781 5782 5784 5787 5789 5790 5792 5793 5795 5796
5574 5571 5567 5564 5561 5558 5554 5551 5548 5545 5542 5539 5536 5533 5531 5530 5529 5528 5528 5527 5527 5527 5527 5527 5527 5527 5527 5528 5530 5535 5542 5547 5552 5558 5565 5572 5580 5590 5597 5602 5608 5615 5621 5629 5637 5644 5651 5657 5664 5671 5677 5682 5686 5692 5698 5704 5711 5718 5722 5728 5735 5740 5743 5744 5746 5748 5747 5749 5754 5759 5761 5761 5760 5761 5764 5771 5775 5777 5779 5779 5781 5784 5786 5788 5790 5791 5793 5794
5573 5570 5567 5564 5561 5558 5555 5551 5548 5545 5543 5540 5537 5535 5532 5531 5530 5529 5528 5528 5528 5527 5527 5527 5527 5527 5528 5529 5531 5535 5542 5547 5552 5559 5565 5572 5580 5588 5596 5603 5610 5617 5625 5631 5637 5643 5650 5657 5663 5667 5672 5677 5681 5688 5694 5699 5707 5712 5716 5723 5730 5734 5736 5738 5740 5742 5744 5747 5751 5755 5758 5760 5759 5759 5762 5768 5772 5774 5774 5776 5778 5781 5783 5785 5787 5789 5790 5792
5573 5570 5567 5563 5561 5558 5555 5551 5548 5545 5542 5540 5538 5535 5533 5531 5530 5529 5529 5528 5527 5527 5527 5527 5527 5528 5529 5531 5533 5536 5543 5549 5553 5559 5566 5571 5578 5585 5594 5601 5608 5617 5626 5631 5636 5641 5647 5651 5656 5663 5669 5674 5680 5686 5692 5699 5706 5710 5715 5721 5726 5730 5733 5735 5737 5739 5741 5744 5747 5750 5754 5756 5758 5759 5762 5766 5768 5769 5770 5773 5776 5778 5780 5783 5785 5787 5789 5790
5573 5569 5566 5563 5560 5557 5554 5551 5548 5544 5542 5540 5538 5535 5534 5532 5531 5530 5529 5528 5527 5527 5527 5527 5528 5529 5530 5532 5534 5537 5545 5551 5554 5560 5566 5571 5577 5585 5593 5601 5610 5617 5623 5629 5634 5640 5645 5650 5656 5664 5670 5674 5679 5685 5693 5701 5705 5711 5716 5719 5722 5727 5732 5734 5736 5738 5740 5743 5745 5748 5751 5753 5756 5758 5760 5762 5763 5765 5768 5770 5774 5776 5778 5781 5783 5786 5787 5787
5573 5570 5566 5563 5559 5557 5554 5551 5547 5544 5542 5539 5537 5535 5534 5532 5531 5530 5529 5529 5529 5528 5529 5529 5530 5532 5533 5535 5537 5540 5547 5554 5556 5561 5567 5572 5579 5586 5594 5603 5612 5618 5623 5629 5636 5641 5646 5652 5657 5663 5668 5674 5680 5686 5692 5697 5702 5708 5713 5715 5720 5726 5729 5731 5735 5738 5740 5742 5744 5747 5749 5751 5754 5756 5757 5758 5759 5762 5765 5768 5772 5774 5776 5778 5781 5784 5784 5784
5573 5570 5567 5563 5560 5557 5554 5551 5548 5545 5542 5540 5538 5535 5534 5532 5531 5530 5529 5529 5530 5530 5530 5531 5533 5534 5535 5538 5541 5544 5551 5556 5559 5562 5568 5574 5581 5588 5596 5605 5613 5620 5625 5632 5639 5644 5648 5653 5658 5663 5668 5674 5681 5688 5692 5696 5701 5706 5709 5714 5720 5724 5725 5728 5732 5735 5737 5740 5742 5745 5746 5748 5751 5753 5753 5755 5757 5760 5763 5767 5770 5773 5774 5776 5779 5780 5781 5781
5574 5571 5568 5565 5562 5558 5555 5552 5549 5546 5543 5540 5538 5535 5534 5532 5531 5530 5529 5529 5530 5530 5531 5532 5534 5536 5538 5542 5545 5547 5553 5558 5561 5565 5570 5576 5583 5590 5598 5607 5615 5622 5628 5635 5641 5646 5650 5654 5659 5663 5668 5672 5678 5684 5690 5693 5698 5706 5711 5715 5718 5719 5721 5724 5727 5730 5733 5736 5739 5742 5744 5745 5748 5749 5751 5754 5756 5759 5762 5766 5769 5771 5773 5775 5776 5777 5779 5780
5576 5572 5569 5566 5563 5559 5555 5552 5549 5546 5544 5541 5538 5536 5534 5532 5532 5531 5531 5530 5531 5532 5533 5534 5537 5538 5540 5546 5550 5551 5555 5561 5564 5568 5573 5579 5586 5592 5600 5609 5618 5625 5631 5637 5642 5646 5650 5653 5657 5661 5666 5671 5675 5679 5685 5689 5695 5704 5711 5714 5715 5718 5721 5722 5724 5728 5731 5734 5737 5740 5741 5742 5744 5747 5750 5753 5754 5756 5761 5765 5768 5770 5771 5773 5774 5775 5777 5778
5578 5574 5571 5568 5564 5560 5556 5552 5550 5548 5545 5542 5539 5536 5534 5533 5533 5533 5533 5533 5534 5534 5536 5537 5539 5542 5544 5548 5553 5557 5560 5564 5567 5572 5577 5583 5589 5595 5602 5609 5617 5626 5633 5637 5641 5646 5650 5652 5656 5661 5665 5670 5673 5676 5681 5685 5691 5699 5705 5709 5712 5715 5719 5722 5724 5727 5729 5732 5735 5737 5739 5739 5742 5745 5748 5751 5751 5754 5759 5763 5766 5768 5769 5771 5772 5773 5775 5776
5580 5577 5573 5570 5566 5562 5558 5555 5553 5550 5547 5544 5541 5539 5537 5536 5535 5536 5536 5537 5537 5538 5539 5541 5543 5546 5550 5553 5555 5561 5565 5567 5570 5576 5581 5586 5591 5597 5604 5609 5614 5624 5631 5635 5638 5644 5649 5651 5655 5660 5664 5667 5671 5677 5682 5685 5691 5697 5701 5705 5709 5712 5716 5719 5722 5725 5728 5730 5732 5735 5737 5738 5740 5743 5745 5747 5749 5752 5756 5760 5763 5765 5767 5769 5770 5771 5773 5774
5582 5579 5576 5572 5568 5564 5561 5558 5556 5553 5550 5548 5546 5544 5542 5541 5541 5541 5541 5541 5542 5543 5544 5546 5549 5552 5556 5558 5559 5563 5568 5570 5574 5580 5584 5590 5594 5600 5607 5612 5615 5621 5627 5632 5636 5640 5646 5650 5655 5659 5664 5668 5675 5680 5684 5687 5692 5697 5700 5702 5706 5711 5714 5716 5719 5723 5726 5728 5730 5732 5735 5737 5739 5740 5742 5743 5746 5749 5752 5756 5759 5761 5764 5766 5768 5770 5771 5772
5584 5581 5578 5575 5571 5567 5564 5562 5559 5557 5554 5553 5551 5550 5548 5547 5546 5546 5547 5547 5547 5548 5549 5551 5554 5557 5561 5563 5563 5567 5572 5574 5578 5583 5588 5594 5599 5604 5610 5615 5617 5621 5627 5632 5635 5639 5643 5649 5654 5658 5664 5671 5677 5680 5683 5687 5692 5696 5699 5702 5705 5710 5713 5715 5719 5723 5724 5727 5729 5730 5733 5735 5737 5738 5739 5740 5742 5745 5748 5752 5755 5758 5760 5763 5766 5767 5769 5771
5587 5584 5581 5578 5574 5571 5568 5566 5563 5561 5559 5557 5556 5555 5553 5552 5551 5551 5552 5553 5553 5553 5554 5556 5558 5562 5563 5565 5566 5570 5575 5578 5582 5587 5592 5597 5603 5608 5613 5617 5619 5622 5628 5632 5636 5640 5643 5647 5652 5656 5661 5667 5672 5675 5678 5682 5687 5692 5697 5700 5704 5709 5713 5715 5719 5721 5723 5726 5727 5729 5731 5733 5735 5736 5737 5739 5740 5743 5747 5751 5753 5756 5758 5761 5763 5765 5767 5768
5589 5587 5584 5581 5577 5574 5571 5569 5567 5565 5564 5562 5560 5559 5558 5558 5557 5556 5557 5558 5557 5558 5559 5561 5564 5566 5567 5569 5570 5572 5577 5582 5586 5591 5596 5601 5606 5610 5615 5619 5621 5623 5628 5633 5638 5642 5644 5647 5652 5655 5658 5661 5664 5668 5674 5678 5683 5688 5692 5697 5702 5706 5710 5714 5716 5718 5721 5724 5726 5728 5730 5731 5733 5734 5735 5738 5739 5742 5745 5748 5751 5754 5756 5759 5761 5763 5764 5766
5592 5590 5587 5584 5580 5577 5575 5573 5570 5569 5567 5566 5564 5563 5563 5562 5562 5562 5562 5562 5563 5563 5565 5567 5569 5571 5572 5574 5575 5576 5580 5585 5589 5593 5599 5604 5608 5612 5616 5620 5623 5625 5629 5633 5637 5641 5644 5648 5652 5656 5659 5662 5664 5669 5674 5679 5682 5685 5689 5695 5699 5702 5707 5712 5714 5716 5719 5722 5724 5726 5728 5730 5731 5731 5734 5736 5738 5740 5742 5745 5749 5752 5755 5757 5759 5761 5762 5763
5594 5591 5589 5586 5583 5580 5578 5576 5574 5572 5571 5570 5569 5568 5567 5567 5567 5567 5567 5568 5568 5569 5571 5572 5573 5574 5576 5577 5578 5579 5583 5588 5590 5594 5600 5606 5610 5615 5618 5621 5624 5626 5629 5632 5636 5640 5644 5648 5651 5655 5659 5663 5667 5671 5675 5678 5681 5684 5688 5693 5697 5701 5704 5708 5711 5714 5717 5720 5723 5724 5725 5727 5729 5729 5732 5734 5736 5738 5741 5744 5747 5750 5752 5754 5755 5757 5759 5760
5595 5593 5590 5588 5586 5583 5581 5580 5577 5575 5574 5574 5573 5571 5571 5571 5571 5571 5572 5572 5573 5574 5574 5575 5576 5578 5579 5579 5581 5583 5585 5589 5593 5595 5600 5606 5612 5616 5619 5621 5623 5625 5629 5632 5636 5640 5644 5648 5651 5655 5660 5663 5667 5672 5675 5678 5681 5684 5688 5692 5696 5701 5704 5705 5709 5713 5716 5719 5721 5721 5723 5726 5727 5728 5729 5731 5733 5736 5739 5743 5745 5747 5749 5751 5753 5754 5756 5758
5596 5594 5592 5590 5588 5587 5585 5583 5581 5579 5578 5577 5576 5575 5575 5574 5575 5575 5576 5576 5576 5577 5578 5578 5579 5581 5582 5582 5584 5587 5588 5591 5595 5598 5602 5607 5612 5616 5620 5621 5623 5626 5629 5633 5636 5640 5644 5648 5652 5656 5660 5663 5667 5670 5674 5678 5680 5683 5688 5693 5696 5699 5703 5705 5707 5709 5713 5717 5719 5719 5721 5723 5724 5725 5727 5729 5731 5733 5737 5741 5744 5746 5748 5750 5751 5753 5754 5756
5599 5596 5594 5592 5591 5589 5588 5587 5585 5583 5581 5580 5579 5579 5578 5577 5577 5578 5578 5579 5580 5580 5581 5582 5583 5585 5586 5586 5588 5591 5592 5594 5597 5600 5604 5609 5613 5617 5620 5622 5623 5626 5630 5633 5636 5640 5645 5648 5652 5654 5657 5661 5665 5669 5673 5676 5679 5682 5687 5691 5694 5697 5701 5703 5705 5706 5710 5715 5717 5717 5718 5720 5721 5722 5725 5728 5729 5731 5734 5738 5741 5744 5747 5748 5750 5751 5752 5754
5600 5598 5596 5594 5593 5592 5590 5589 5588 5586 5584 5583 5582 5582 5581 5580 5580 5580 5581 5582 5583 5583 5585 5586 5587 5589 5590 5590 5591 5593 5596 5598 5600 5603 5607 5611 5615 5618 5621 5622 5625 5628 5630 5633 5637 5641 5645 5648 5650 5653 5655 5658 5662 5667 5670 5673 5677 5681 5685 5689 5691 5694 5698 5701 5703 5705 5707 5711 5713 5714 5715 5717 5718 5720 5723 5726 5727 5729 5731 5734 5738 5742 5744 5746 5748 5749 5750 5751
5601 5599 5597 5596 5595 5594 5592 5591 5590 5588 5587 5586 5585 5585 5584 5584 5584 5584 5583 5584 5586 5587 5587 5589 5590 5591 5592 5593 5594 5596 5598 5601 5603 5605 5608 5612 5616 5620 5623 5625 5627 5629 5632 5635 5639 5642 5645 5648 5649 5652 5655 5658 5661 5665 5668 5671 5674 5677 5682 5686 5688 5690 5694 5698 5701 5703 5705 5707 5709 5711 5713 5714 5715 5717 5721 5723 5725 5728 5730 5732 5735 5738 5741 5743 5744 5746 5747 5748